AIC101 VGHS-VGSY

Flight info

Callsign AIC101
Flight time 0h 24m
Altitude 13000
Route NIKLI1C NIKLI DCT METUL
Aircraft A320/M-SDE3FGHIRWY/LB1

Departure

Time 2026-04-27 12:15
Airport Hazrat Shahjalal International Airport (VGHS)

Arrival

Time 2026-04-27 12:40
Airport Osmany International Airport (VGSY)
Time Latitude Longitude Altitude Speed Heading
2026-04-27 11:46 23.84852 90.40341 36 ft 0 kts 51°
2026-04-27 12:00 23.84847 90.40334 36 ft 2 kts 51°
2026-04-27 12:00 23.84836 90.40320 36 ft 2 kts 51°
2026-04-27 12:00 23.84826 90.40305 34 ft 2 kts 51°
2026-04-27 12:00 23.84815 90.40290 33 ft 2 kts 51°
2026-04-27 12:01 23.84804 90.40275 33 ft 2 kts 51°
2026-04-27 12:01 23.84793 90.40260 34 ft 2 kts 51°
2026-04-27 12:01 23.84785 90.40249 34 ft 0 kts 51°
2026-04-27 12:02 23.84791 90.40257 34 ft 0 kts 52°
2026-04-27 12:03 23.84791 90.40258 34 ft 0 kts 63°
2026-04-27 12:03 23.84789 90.40261 33 ft 0 kts 97°
2026-04-27 12:03 23.84761 90.40284 36 ft 9 kts 155°
2026-04-27 12:03 23.84703 90.40292 36 ft 8 kts 191°
2026-04-27 12:04 23.84658 90.40252 35 ft 11 kts 240°
2026-04-27 12:04 23.84671 90.40180 36 ft 9 kts 310°
2026-04-27 12:04 23.84719 90.40141 36 ft 8 kts 324°
2026-04-27 12:04 23.84760 90.40108 35 ft 7 kts 324°
2026-04-27 12:05 23.84810 90.40070 36 ft 9 kts 324°
2026-04-27 12:05 23.84857 90.40033 36 ft 8 kts 324°
2026-04-27 12:05 23.84903 90.39994 36 ft 8 kts 323°
2026-04-27 12:05 23.84944 90.39961 36 ft 7 kts 323°
2026-04-27 12:06 23.84985 90.39928 36 ft 9 kts 324°
2026-04-27 12:06 23.85037 90.39887 36 ft 10 kts 324°
2026-04-27 12:06 23.85088 90.39848 36 ft 8 kts 324°
2026-04-27 12:06 23.85133 90.39812 36 ft 8 kts 323°
2026-04-27 12:07 23.85198 90.39760 36 ft 12 kts 323°
2026-04-27 12:07 23.85259 90.39711 36 ft 10 kts 323°
2026-04-27 12:07 23.85313 90.39667 36 ft 9 kts 323°
2026-04-27 12:07 23.85369 90.39626 36 ft 10 kts 324°
2026-04-27 12:08 23.85420 90.39586 36 ft 8 kts 324°
2026-04-27 12:08 23.85471 90.39544 36 ft 10 kts 322°
2026-04-27 12:08 23.85536 90.39491 35 ft 13 kts 324°
2026-04-27 12:08 23.85620 90.39426 36 ft 17 kts 324°
2026-04-27 12:09 23.85715 90.39341 36 ft 18 kts 315°
2026-04-27 12:09 23.85738 90.39229 36 ft 14 kts 256°
2026-04-27 12:09 23.85692 90.39143 36 ft 12 kts 234°
2026-04-27 12:09 23.85643 90.39074 36 ft 11 kts 234°
2026-04-27 12:10 23.85601 90.39011 36 ft 10 kts 234°
2026-04-27 12:10 23.85571 90.38966 36 ft 5 kts 234°
2026-04-27 12:10 23.85555 90.38943 35 ft 0 kts 231°
2026-04-27 12:13 23.85551 90.38938 35 ft 6 kts 231°
2026-04-27 12:13 23.85508 90.38893 35 ft 8 kts 209°
2026-04-27 12:13 23.85457 90.38899 35 ft 8 kts 148°
2026-04-27 12:14 23.85436 90.38915 35 ft 0 kts 143°
2026-04-27 12:15 23.85318 90.39010 33 ft 61 kts 143°
2026-04-27 12:15 23.84736 90.39474 36 ft 142 kts 145°
2026-04-27 12:15 23.83787 90.40204 322 ft 180 kts 144°
2026-04-27 12:15 23.82665 90.41052 789 ft 210 kts 142°
2026-04-27 12:16 23.81455 90.42037 1732 ft 219 kts 144°
2026-04-27 12:16 23.80179 90.43065 2606 ft 237 kts 147°
2026-04-27 12:16 23.78836 90.44214 3552 ft 254 kts 136°
2026-04-27 12:16 23.78044 90.45982 4698 ft 273 kts 102°
2026-04-27 12:17 23.78106 90.48115 5760 ft 290 kts 83°
2026-04-27 12:17 23.78540 90.50311 6846 ft 300 kts 75°
2026-04-27 12:17 23.79125 90.52529 7976 ft 308 kts 72°
2026-04-27 12:17 23.79750 90.54787 9125 ft 315 kts 70°
2026-04-27 12:18 23.80173 90.56347 9847 ft 319 kts 68°
2026-04-27 12:18 23.81119 90.58518 10876 ft 316 kts 47°
2026-04-27 12:18 23.82639 90.60198 11879 ft 310 kts 27°
2026-04-27 12:18 23.84547 90.61422 12434 ft 331 kts 21°
2026-04-27 12:19 23.86672 90.62672 12653 ft 363 kts 21°
2026-04-27 12:19 23.89000 90.64031 12715 ft 395 kts 22°
2026-04-27 12:19 23.91510 90.65505 12723 ft 423 kts 22°
2026-04-27 12:19 23.94133 90.67074 12706 ft 426 kts 23°
2026-04-27 12:20 23.96649 90.68623 12719 ft 404 kts 24°
2026-04-27 12:20 23.99027 90.70105 12719 ft 383 kts 23°
2026-04-27 12:20 24.01286 90.71506 12717 ft 363 kts 22°
2026-04-27 12:20 24.03434 90.72826 12715 ft 346 kts 22°
2026-04-27 12:21 24.05484 90.74075 12714 ft 329 kts 21°
2026-04-27 12:21 24.07414 90.75243 12719 ft 313 kts 21°
2026-04-27 12:21 24.09276 90.76368 12719 ft 298 kts 21°
2026-04-27 12:21 24.10941 90.77669 12723 ft 293 kts 36°
2026-04-27 12:22 24.12374 90.79175 12723 ft 279 kts 36°
2026-04-27 12:22 24.13737 90.80602 12718 ft 264 kts 35°
2026-04-27 12:22 24.15118 90.82022 12728 ft 286 kts 35°
2026-04-27 12:22 24.16661 90.83580 12729 ft 316 kts 36°
2026-04-27 12:23 24.18350 90.85291 12723 ft 345 kts 36°
2026-04-27 12:23 24.20168 90.87153 12722 ft 371 kts 37°
2026-04-27 12:23 24.22106 90.89159 12733 ft 395 kts 38°
2026-04-27 12:23 24.24149 90.91289 12729 ft 416 kts 38°
2026-04-27 12:24 24.26289 90.93529 12725 ft 434 kts 39°
2026-04-27 12:24 24.28478 90.95827 12721 ft 437 kts 39°
2026-04-27 12:24 24.30699 90.98168 12721 ft 437 kts 39°
2026-04-27 12:24 24.32894 91.00474 12739 ft 437 kts 39°
2026-04-27 12:25 24.35096 91.02777 12730 ft 437 kts 39°
2026-04-27 12:25 24.37301 91.05077 12729 ft 437 kts 39°
2026-04-27 12:25 24.39505 91.07376 12732 ft 438 kts 39°
2026-04-27 12:25 24.41716 91.09682 12738 ft 438 kts 39°
2026-04-27 12:26 24.43901 91.11958 12743 ft 438 kts 39°
2026-04-27 12:26 24.46112 91.14264 12750 ft 438 kts 39°
2026-04-27 12:26 24.48320 91.16569 12743 ft 439 kts 39°
2026-04-27 12:26 24.50531 91.18880 12751 ft 439 kts 39°
2026-04-27 12:27 24.52737 91.21191 12753 ft 439 kts 39°
2026-04-27 12:27 24.54942 91.23504 12747 ft 438 kts 39°
2026-04-27 12:27 24.57146 91.25820 12749 ft 439 kts 39°
2026-04-27 12:27 24.59353 91.28134 12750 ft 439 kts 39°
2026-04-27 12:28 24.61561 91.30449 12754 ft 439 kts 39°
2026-04-27 12:28 24.63773 91.32765 12754 ft 439 kts 39°
2026-04-27 12:28 24.65958 91.35054 12749 ft 425 kts 39°
2026-04-27 12:28 24.68011 91.37224 12751 ft 393 kts 39°
2026-04-27 12:29 24.69917 91.39217 12620 ft 362 kts 35°
2026-04-27 12:29 24.71950 91.40560 12495 ft 325 kts 16°
2026-04-27 12:29 24.73977 91.41416 12378 ft 301 kts 13°
2026-04-27 12:29 24.75897 91.42192 11873 ft 295 kts 13°
2026-04-27 12:30 24.77825 91.42957 11303 ft 291 kts 13°
2026-04-27 12:30 24.79696 91.43699 10870 ft 282 kts 13°
2026-04-27 12:30 24.81528 91.44426 10305 ft 279 kts 13°
2026-04-27 12:30 24.83351 91.45146 9728 ft 277 kts 13°
2026-04-27 12:31 24.85167 91.45852 9109 ft 276 kts 13°
2026-04-27 12:31 24.86969 91.46537 8539 ft 273 kts 13°
2026-04-27 12:31 24.88753 91.47204 7975 ft 270 kts 13°
2026-04-27 12:31 24.90545 91.47861 7336 ft 272 kts 13°
2026-04-27 12:32 24.92340 91.48502 6756 ft 271 kts 13°
2026-04-27 12:32 24.94133 91.49124 6200 ft 270 kts 13°
2026-04-27 12:32 24.95922 91.49732 5605 ft 268 kts 13°
2026-04-27 12:32 24.97700 91.50345 5024 ft 268 kts 20°
2026-04-27 12:33 24.99223 91.51473 4659 ft 258 kts 48°
2026-04-27 12:33 25.00147 91.53052 4522 ft 236 kts 72°
2026-04-27 12:33 25.00470 91.54761 4197 ft 224 kts 90°
2026-04-27 12:33 25.00576 91.56467 3771 ft 222 kts 90°
2026-04-27 12:34 25.00689 91.58163 3466 ft 221 kts 90°
2026-04-27 12:34 25.00804 91.59836 3244 ft 217 kts 90°
2026-04-27 12:34 25.00918 91.61477 3091 ft 215 kts 90°
2026-04-27 12:34 25.01031 91.63120 3002 ft 215 kts 90°
2026-04-27 12:35 25.01143 91.64763 2998 ft 215 kts 89°
2026-04-27 12:35 25.01257 91.66412 2996 ft 216 kts 89°
2026-04-27 12:35 25.01371 91.68051 2836 ft 213 kts 89°
2026-04-27 12:35 25.01484 91.69646 2709 ft 204 kts 89°
2026-04-27 12:36 25.01590 91.71153 2641 ft 190 kts 89°
2026-04-27 12:36 25.01617 91.72536 2475 ft 175 kts 100°
2026-04-27 12:36 25.01298 91.73761 2255 ft 162 kts 116°
2026-04-27 12:36 25.00856 91.74902 2040 ft 159 kts 114°
2026-04-27 12:37 25.00440 91.75987 1832 ft 147 kts 113°
2026-04-27 12:37 25.00054 91.76991 1653 ft 141 kts 112°
2026-04-27 12:37 24.99701 91.77908 1484 ft 141 kts 112°
2026-04-27 12:37 24.99319 91.78902 1297 ft 141 kts 112°
2026-04-27 12:38 24.98937 91.79892 1113 ft 141 kts 112°
2026-04-27 12:38 24.98553 91.80890 920 ft 142 kts 112°
2026-04-27 12:38 24.98166 91.81895 729 ft 142 kts 111°
2026-04-27 12:38 24.97778 91.82900 533 ft 142 kts 112°
2026-04-27 12:39 24.97389 91.83908 333 ft 142 kts 111°
2026-04-27 12:39 24.97003 91.84907 144 ft 141 kts 111°
2026-04-27 12:39 24.96638 91.85868 140 ft 123 kts 110°
2026-04-27 12:39 24.96352 91.86628 53 ft 82 kts 109°
2026-04-27 12:40 24.96200 91.87014 58 ft 46 kts 112°
2026-04-27 12:40 24.96071 91.87351 55 ft 38 kts 120°
2026-04-27 12:40 24.95993 91.87377 58 ft 4 kts 235°
2026-04-27 12:40 24.95975 91.87356 57 ft 4 kts 216°
2026-04-27 12:41 24.95945 91.87340 58 ft 4 kts 203°
2026-04-27 12:41 24.95921 91.87328 54 ft 3 kts 203°
2026-04-27 12:41 24.95900 91.87319 55 ft 4 kts 203°
2026-04-27 12:41 24.95877 91.87308 54 ft 3 kts 203°
2026-04-27 12:42 24.95859 91.87299 55 ft 3 kts 203°
2026-04-27 12:42 24.95799 91.87271 56 ft 14 kts 203°
2026-04-27 12:42 24.95773 91.87211 58 ft 8 kts 281°
2026-04-27 12:42 24.95791 91.87166 57 ft 0 kts 294°